24-11-2023, 00:00:08,    325,    0.0,    8.6,   0.00,   0.00, 1019.3,   69.6, -999.0
24-11-2023, 00:00:18,    325,    0.5,    8.6,   0.00,   0.00, 1019.3,   70.0, -999.0
24-11-2023, 00:00:28,    325,    1.0,    8.6,   0.00,   0.00, 1019.4,   70.2, -999.0
24-11-2023, 00:00:38,    348,    1.6,    8.6,   0.00,   0.00, 1019.4,   70.1, -999.0
24-11-2023, 00:00:48,    349,    2.1,    8.6,   0.00,   0.00, 1019.4,   70.1, -999.0
24-11-2023, 00:00:58,    348,    0.5,    8.5,   0.00,   0.00, 1019.3,   69.8, -999.0
24-11-2023, 00:01:08,    295,    2.0,    8.6,   0.00,   0.00, 1019.4,   70.1, -999.0
24-11-2023, 00:01:18,    269,    1.7,    8.6,   0.00,   0.00, 1019.4,   69.9, -999.0
24-11-2023, 00:01:28,    270,    0.9,    8.6,   0.00,   0.00, 1019.4,   69.6, -999.0
24-11-2023, 00:01:38,    320,    0.5,    8.5,   0.00,   0.00, 1019.3,   69.6, -999.0
24-11-2023, 00:01:48,    320,    1.2,    8.5,   0.00,   0.00, 1019.4,   69.9, -999.0
24-11-2023, 00:01:58,    321,    1.2,    8.6,   0.00,   0.00, 1019.4,   69.8, -999.0
24-11-2023, 00:02:07,    320,    1.2,    8.6,   0.00,   0.00, 1019.4,   69.8, -999.0
24-11-2023, 00:02:18,    338,    2.4,    8.6,   0.00,   0.00, 1019.4,   69.7, -999.0
24-11-2023, 00:02:28,    338,    1.7,    8.6,   0.00,   0.00, 1019.4,   69.6, -999.0
24-11-2023, 00:02:38,    338,    0.6,    8.6,   0.00,   0.00, 1019.3,   69.7, -999.0
24-11-2023, 00:02:47,    338,    0.0,    8.5,   0.00,   0.00, 1019.2,   69.5, -999.0
24-11-2023, 00:02:58,    338,    0.0,    8.4,   0.00,   0.00, 1019.2,   69.5, -999.0
24-11-2023, 00:03:08,    338,    0.0,    8.5,   0.00,   0.00, 1019.2,   69.7, -999.0
24-11-2023, 00:03:17,    323,    0.5,    8.5,   0.00,   0.00, 1019.3,   69.9, -999.0
24-11-2023, 00:03:28,    323,    1.0,    8.6,   0.00,   0.00, 1019.3,   70.0, -999.0
24-11-2023, 00:03:38,    322,    0.3,    8.5,   0.00,   0.00, 1019.3,   69.7, -999.0
24-11-2023, 00:03:47,    322,    0.5,    8.5,   0.00,   0.00, 1019.3,   69.8, -999.0
24-11-2023, 00:03:57,    322,    0.0,    8.4,   0.00,   0.00, 1019.2,   69.6, -999.0
24-11-2023, 00:04:08,    322,    0.0,    8.5,   0.00,   0.00, 1019.2,   69.7, -999.0
24-11-2023, 00:04:18,    322,    1.0,    8.5,   0.00,   0.00, 1019.3,   70.1, -999.0
24-11-2023, 00:04:27,    322,    0.6,    8.5,   0.00,   0.00, 1019.3,   70.1, -999.0
24-11-2023, 00:04:37,    321,    0.7,    8.6,   0.00,   0.00, 1019.2,   69.8, -999.0
24-11-2023, 00:04:48,    318,    2.1,    8.6,   0.00,   0.00, 1019.2,   69.6, -999.0
24-11-2023, 00:04:57,    326,    2.0,    8.5,   0.00,   0.00, 1019.2,   69.2, -999.0
24-11-2023, 00:05:07,    325,    1.1,    8.5,   0.00,   0.00, 1019.2,   69.2, -999.0
24-11-2023, 00:05:17,    326,    0.9,    8.6,   0.00,   0.00, 1019.2,   69.1, -999.0
24-11-2023, 00:05:27,    326,    0.7,    8.6,   0.00,   0.00, 1019.2,   69.3, -999.0
24-11-2023, 00:05:37,    326,    1.0,    8.5,   0.00,   0.00, 1019.2,   69.3, -999.0
24-11-2023, 00:05:47,    326,    1.1,    8.5,   0.00,   0.00, 1019.2,   69.2, -999.0
24-11-2023, 00:05:57,    301,    0.5,    8.5,   0.00,   0.00, 1019.2,   69.1, -999.0
24-11-2023, 00:06:07,    302,    0.5,    8.5,   0.00,   0.00, 1019.2,   69.4, -999.0
24-11-2023, 00:06:17,    302,    0.6,    8.5,   0.00,   0.00, 1019.2,   69.2, -999.0
24-11-2023, 00:06:27,    320,    2.2,    8.5,   0.00,   0.00, 1019.2,   69.4, -999.0
24-11-2023, 00:06:37,    316,    2.3,    8.5,   0.00,   0.00, 1019.3,   69.4, -999.0
24-11-2023, 00:06:47,    315,    1.3,    8.5,   0.00,   0.00, 1019.3,   69.5, -999.0
24-11-2023, 00:06:57,    315,    0.4,    8.4,   0.00,   0.00, 1019.2,   69.3, -999.0
24-11-2023, 00:07:07,    315,    1.4,    8.5,   0.00,   0.00, 1019.2,   69.4, -999.0
24-11-2023, 00:07:17,    315,    1.3,    8.5,   0.00,   0.00, 1019.3,   69.3, -999.0
24-11-2023, 00:07:27,    315,    0.7,    8.4,   0.00,   0.00, 1019.2,   69.5, -999.0
24-11-2023, 00:07:37,    315,    0.0,    8.4,   0.00,   0.00, 1019.1,   69.1, -999.0
24-11-2023, 00:07:47,    315,    0.0,    8.4,   0.00,   0.00, 1019.2,   69.5, -999.0
24-11-2023, 00:07:57,    315,    0.0,    8.4,   0.00,   0.00, 1019.2,   69.7, -999.0
24-11-2023, 00:08:07,    315,    0.0,    8.4,   0.00,   0.00, 1019.2,   69.8, -999.0
24-11-2023, 00:08:17,    315,    0.4,    8.4,   0.00,   0.00, 1019.3,   70.1, -999.0
24-11-2023, 00:08:27,    315,    0.9,    8.4,   0.00,   0.00, 1019.3,   70.0, -999.0
24-11-2023, 00:08:37,    314,    0.5,    8.4,   0.00,   0.00, 1019.3,   70.0, -999.0
24-11-2023, 00:08:47,    314,    0.8,    8.4,   0.00,   0.00, 1019.3,   69.8, -999.0
24-11-2023, 00:08:57,    337,    1.3,    8.5,   0.00,   0.00, 1019.3,   69.8, -999.0
24-11-2023, 00:09:07,    317,    1.8,    8.4,   0.00,   0.00, 1019.4,   69.7, -999.0
24-11-2023, 00:09:17,    331,    3.4,    8.4,   0.00,   0.00, 1019.4,   69.6, -999.0
24-11-2023, 00:09:27,    313,    3.9,    8.4,   0.00,   0.00, 1019.4,   68.7, -999.0
24-11-2023, 00:09:37,    291,    3.5,    8.4,   0.00,   0.00, 1019.3,   67.8, -999.0
24-11-2023, 00:09:46,    331,    2.4,    8.5,   0.00,   0.00, 1019.4,   67.2, -999.0
24-11-2023, 00:09:57,    324,    2.0,    8.5,   0.00,   0.00, 1019.4,   66.9, -999.0
24-11-2023, 00:10:07,    311,    0.8,    8.5,   0.00,   0.00, 1019.3,   66.7, -999.0
24-11-2023, 00:10:16,    315,    5.2,    8.5,   0.00,   0.00, 1019.4,   66.6, -999.0
24-11-2023, 00:10:27,    305,    3.5,    8.5,   0.00,   0.00, 1019.4,   65.6, -999.0
24-11-2023, 00:10:37,    311,    2.9,    8.5,   0.00,   0.00, 1019.4,   65.2, -999.0
24-11-2023, 00:10:46,    310,    1.9,    8.6,   0.00,   0.00, 1019.4,   65.4, -999.0
24-11-2023, 00:10:56,    345,    1.9,    8.6,   0.00,   0.00, 1019.4,   65.6, -999.0
24-11-2023, 00:11:07,    341,    1.5,    8.5,   0.00,   0.00, 1019.4,   65.7, -999.0
24-11-2023, 00:11:16,    339,    2.3,    8.5,   0.00,   0.00, 1019.4,   65.6, -999.0
24-11-2023, 00:11:26,    301,    1.9,    8.5,   0.00,   0.00, 1019.4,   65.3, -999.0
24-11-2023, 00:11:36,    356,    3.9,    8.5,   0.00,   0.00, 1019.4,   65.1, -999.0
24-11-2023, 00:11:47,    350,    2.5,    8.5,   0.00,   0.00, 1019.4,   64.9, -999.0
24-11-2023, 00:11:56,    343,    3.1,    8.5,   0.00,   0.00, 1019.4,   64.8, -999.0
24-11-2023, 00:12:06,    324,    4.6,    8.5,   0.00,   0.00, 1019.4,   64.6, -999.0
24-11-2023, 00:12:16,    344,    3.0,    8.4,   0.00,   0.00, 1019.4,   64.4, -999.0
24-11-2023, 00:12:26,    332,    1.9,    8.6,   0.00,   0.00, 1019.4,   64.4, -999.0
24-11-2023, 00:12:36,    333,    1.0,    8.6,   0.00,   0.00, 1019.4,   64.3, -999.0
24-11-2023, 00:12:46,    310,    1.7,    8.5,   0.00,   0.00, 1019.4,   64.4, -999.0
24-11-2023, 00:12:56,    344,    1.9,    8.5,   0.00,   0.00, 1019.4,   64.4, -999.0
24-11-2023, 00:13:06,    339,    0.4,    8.5,   0.00,   0.00, 1019.4,   64.3, -999.0
24-11-2023, 00:13:16,    315,    1.7,    8.5,   0.00,   0.00, 1019.4,   64.5, -999.0
24-11-2023, 00:13:26,    305,    3.3,    8.5,   0.00,   0.00, 1019.4,   64.6, -999.0
24-11-2023, 00:13:36,    312,    3.9,    8.5,   0.00,   0.00, 1019.4,   64.4, -999.0
24-11-2023, 00:13:46,    315,    1.8,    8.6,   0.00,   0.00, 1019.4,   64.3, -999.0
24-11-2023, 00:13:56,    315,    1.7,    8.5,   0.00,   0.00, 1019.4,   64.6, -999.0
24-11-2023, 00:14:06,    316,    1.7,    8.5,   0.00,   0.00, 1019.4,   64.6, -999.0
24-11-2023, 00:14:16,    317,    1.1,    8.5,   0.00,   0.00, 1019.4,   64.7, -999.0
24-11-2023, 00:14:26,    316,    0.5,    8.5,   0.00,   0.00, 1019.3,   64.7, -999.0
24-11-2023, 00:14:36,    293,    1.7,    8.4,   0.00,   0.00, 1019.4,   64.8, -999.0
24-11-2023, 00:14:46,    293,    0.6,    8.5,   0.00,   0.00, 1019.3,   64.7, -999.0
24-11-2023, 00:14:56,    300,    1.7,    8.4,   0.00,   0.00, 1019.3,   64.8, -999.0
24-11-2023, 00:15:06,    298,    1.8,    8.5,   0.00,   0.00, 1019.3,   64.9, -999.0
24-11-2023, 00:15:16,    296,    2.6,    8.5,   0.00,   0.00, 1019.3,   64.9, -999.0
24-11-2023, 00:15:26,    339,    1.3,    8.4,   0.00,   0.00, 1019.3,   64.8, -999.0
24-11-2023, 00:15:36,    301,    2.8,    8.3,   0.00,   0.00, 1019.3,   64.8, -999.0
24-11-2023, 00:15:46,    300,    2.0,    8.3,   0.00,   0.00, 1019.3,   64.6, -999.0
24-11-2023, 00:15:56,    301,    0.5,    8.4,   0.00,   0.00, 1019.3,   64.6, -999.0
24-11-2023, 00:16:06,    301,    0.3,    8.4,   0.00,   0.00, 1019.2,   64.5, -999.0
24-11-2023, 00:16:16,    303,    1.4,    8.4,   0.00,   0.00, 1019.2,   64.8, -999.0
24-11-2023, 00:16:26,    304,    1.3,    8.4,   0.00,   0.00, 1019.2,   64.8, -999.0
24-11-2023, 00:16:35,    303,    1.4,    8.4,   0.00,   0.00, 1019.3,   64.8, -999.0
24-11-2023, 00:16:46,    323,    1.3,    8.4,   0.00,   0.00, 1019.2,   64.8, -999.0
24-11-2023, 00:16:56,    318,    1.6,    8.5,   0.00,   0.00, 1019.2,   64.9, -999.0
24-11-2023, 00:17:06,    316,    0.6,    8.4,   0.00,   0.00, 1019.2,   64.8, -999.0
24-11-2023, 00:17:15,    320,    0.6,    8.4,   0.00,   0.00, 1019.2,   64.8, -999.0
24-11-2023, 00:17:26,    321,    1.2,    8.4,   0.00,   0.00, 1019.3,   64.9, -999.0
24-11-2023, 00:17:36,    321,    0.6,    8.4,   0.00,   0.00, 1019.3,   64.9, -999.0
24-11-2023, 00:17:45,    321,    0.0,    8.3,   0.00,   0.00, 1019.1,   64.6, -999.0
24-11-2023, 00:17:55,    320,    0.0,    8.3,   0.00,   0.00, 1019.2,   64.6, -999.0
24-11-2023, 00:18:06,    331,    0.8,    8.4,   0.00,   0.00, 1019.2,   64.9, -999.0
24-11-2023, 00:18:15,    331,    0.0,    8.3,   0.00,   0.00, 1019.2,   64.6, -999.0
24-11-2023, 00:18:25,    331,    0.0,    8.3,   0.00,   0.00, 1019.2,   64.6, -999.0
24-11-2023, 00:18:35,    331,    1.1,    8.3,   0.00,   0.00, 1019.3,   64.8, -999.0
24-11-2023, 00:18:45,    331,    1.9,    8.4,   0.00,   0.00, 1019.3,   64.8, -999.0
24-11-2023, 00:18:55,    319,    0.8,    8.3,   0.00,   0.00, 1019.3,   64.6, -999.0
24-11-2023, 00:19:05,    320,    0.7,    8.3,   0.00,   0.00, 1019.3,   64.7, -999.0
24-11-2023, 00:19:16,    320,    0.3,    8.4,   0.00,   0.00, 1019.3,   64.8, -999.0
24-11-2023, 00:19:25,    323,    1.4,    8.3,   0.00,   0.00, 1019.3,   65.1, -999.0
24-11-2023, 00:19:35,    323,    1.4,    8.3,   0.00,   0.00, 1019.3,   65.1, -999.0
24-11-2023, 00:19:45,    305,    1.5,    8.4,   0.00,   0.00, 1019.3,   64.7, -999.0
24-11-2023, 00:19:55,    340,    1.9,    8.4,   0.00,   0.00, 1019.3,   64.7, -999.0
24-11-2023, 00:20:05,    350,    1.6,    8.4,   0.00,   0.00, 1019.3,   64.8, -999.0
24-11-2023, 00:20:15,    350,    0.6,    8.3,   0.00,   0.00, 1019.3,   64.6, -999.0
24-11-2023, 00:20:25,    345,    0.7,    8.3,   0.00,   0.00, 1019.2,   64.8, -999.0
24-11-2023, 00:20:35,    345,    0.8,    8.4,   0.00,   0.00, 1019.3,   65.0, -999.0
24-11-2023, 00:20:45,    329,    1.8,    8.4,   0.00,   0.00, 1019.3,   65.1, -999.0
24-11-2023, 00:20:55,    323,    1.3,    8.4,   0.00,   0.00, 1019.2,   64.9, -999.0
24-11-2023, 00:21:05,    324,    0.5,    8.3,   0.00,   0.00, 1019.3,   65.0, -999.0
24-11-2023, 00:21:15,    323,    0.5,    8.4,   0.00,   0.00, 1019.3,   65.0, -999.0
24-11-2023, 00:21:25,    323,    1.2,    8.4,   0.00,   0.00, 1019.3,   65.1, -999.0
24-11-2023, 00:21:35,    323,    1.5,    8.4,   0.00,   0.00, 1019.3,   65.2, -999.0
24-11-2023, 00:21:45,    324,    0.5,    8.3,   0.00,   0.00, 1019.2,   65.1, -999.0
24-11-2023, 00:21:55,    344,    2.0,    8.4,   0.00,   0.00, 1019.2,   65.1, -999.0
24-11-2023, 00:22:05,    334,    2.6,    8.4,   0.00,   0.00, 1019.2,   65.0, -999.0
24-11-2023, 00:22:15,    320,    1.9,    8.4,   0.00,   0.00, 1019.2,   64.4, -999.0
24-11-2023, 00:22:25,    346,    1.1,    8.3,   0.00,   0.00, 1019.2,   64.3, -999.0
24-11-2023, 00:22:35,    326,    3.2,    8.4,   0.00,   0.00, 1019.3,   64.3, -999.0
24-11-2023, 00:22:45,    330,    5.2,    8.3,   0.00,   0.00, 1019.2,   63.6, -999.0
24-11-2023, 00:22:55,    322,    3.4,    8.3,   0.00,   0.00, 1019.2,   63.1, -999.0
24-11-2023, 00:23:05,    326,    3.1,    8.4,   0.00,   0.00, 1019.2,   63.0, -999.0
24-11-2023, 00:23:15,    327,    2.1,    8.4,   0.00,   0.00, 1019.2,   62.7, -999.0
24-11-2023, 00:23:25,    330,    1.2,    8.4,   0.00,   0.00, 1019.2,   62.5, -999.0
24-11-2023, 00:23:34,    324,    1.1,    8.4,   0.00,   0.00, 1019.3,   62.6, -999.0
24-11-2023, 00:23:45,    325,    1.8,    8.4,   0.00,   0.00, 1019.3,   62.7, -999.0
24-11-2023, 00:23:55,    326,    1.2,    8.4,   0.00,   0.00, 1019.2,   62.9, -999.0
24-11-2023, 00:24:04,    357,    1.9,    8.4,   0.00,   0.00, 1019.2,   62.8, -999.0
24-11-2023, 00:24:14,    342,    2.8,    8.4,   0.00,   0.00, 1019.2,   62.7, -999.0
24-11-2023, 00:24:25,    332,    2.6,    8.2,   0.00,   0.00, 1019.2,   62.5, -999.0
24-11-2023, 00:24:34,    314,    3.0,    8.4,   0.00,   0.00, 1019.3,   62.7, -999.0
24-11-2023, 00:24:44,      3,    4.3,    8.4,   0.00,   0.00, 1019.3,   62.4, -999.0
24-11-2023, 00:24:55,    342,    3.6,    8.3,   0.00,   0.00, 1019.3,   62.4, -999.0
24-11-2023, 00:25:05,    325,    2.4,    8.2,   0.00,   0.00, 1019.2,   62.0, -999.0
24-11-2023, 00:25:14,    311,    3.2,    8.4,   0.00,   0.00, 1019.3,   61.9, -999.0
24-11-2023, 00:25:26,    348,    3.7,    8.3,   0.00,   0.00, 1019.3,   61.7, -999.0
24-11-2023, 00:25:35,    348,    1.2,    8.3,   0.00,   0.00, 1019.3,   61.4, -999.0
24-11-2023, 00:25:44,    325,    2.2,    8.3,   0.00,   0.00, 1019.3,   61.5, -999.0
24-11-2023, 00:25:54,    323,    1.3,    8.4,   0.00,   0.00, 1019.2,   61.3, -999.0
24-11-2023, 00:26:04,    346,    4.4,    8.4,   0.00,   0.00, 1019.3,   61.3, -999.0
24-11-2023, 00:26:14,    314,    5.3,    8.4,   0.00,   0.00, 1019.3,   61.3, -999.0
24-11-2023, 00:26:24,    301,    6.7,    8.3,   0.00,   0.00, 1019.3,   60.8, -999.0
24-11-2023, 00:26:34,    314,    5.3,    8.4,   0.00,   0.00, 1019.3,   60.6, -999.0
24-11-2023, 00:26:44,    328,    3.1,    8.4,   0.00,   0.00, 1019.3,   60.5, -999.0
24-11-2023, 00:26:54,    325,    2.6,    8.4,   0.00,   0.00, 1019.3,   60.5, -999.0
24-11-2023, 00:27:04,     14,    2.6,    8.4,   0.00,   0.00, 1019.3,   60.6, -999.0
24-11-2023, 00:27:14,    339,    0.9,    8.3,   0.00,   0.00, 1019.3,   60.7, -999.0
24-11-2023, 00:27:24,    339,    2.0,    8.3,   0.00,   0.00, 1019.4,   60.8, -999.0
24-11-2023, 00:27:34,    258,    1.8,    8.3,   0.00,   0.00, 1019.3,   60.8, -999.0
24-11-2023, 00:27:44,    269,    0.9,    8.3,   0.00,   0.00, 1019.3,   60.9, -999.0
24-11-2023, 00:27:54,    335,    1.4,    8.3,   0.00,   0.00, 1019.3,   60.9, -999.0
24-11-2023, 00:28:04,    327,    0.5,    8.2,   0.00,   0.00, 1019.3,   60.8, -999.0
24-11-2023, 00:28:14,    327,    0.6,    8.3,   0.00,   0.00, 1019.3,   61.0, -999.0
24-11-2023, 00:28:24,    323,    1.7,    8.3,   0.00,   0.00, 1019.3,   61.1, -999.0
24-11-2023, 00:28:34,      0,    3.0,    8.3,   0.00,   0.00, 1019.3,   61.2, -999.0
24-11-2023, 00:28:44,    346,    2.2,    8.3,   0.00,   0.00, 1019.3,   61.2, -999.0
24-11-2023, 00:28:54,    333,    1.7,    8.3,   0.00,   0.00, 1019.3,   61.1, -999.0
24-11-2023, 00:29:04,    331,    2.8,    8.2,   0.00,   0.00, 1019.3,   60.9, -999.0
24-11-2023, 00:29:14,    326,    1.1,    8.2,   0.00,   0.00, 1019.2,   60.6, -999.0
24-11-2023, 00:29:24,    331,    4.2,    8.3,   0.00,   0.00, 1019.3,   60.4, -999.0
24-11-2023, 00:29:34,    357,    3.7,    8.3,   0.00,   0.00, 1019.2,   60.1, -999.0
24-11-2023, 00:29:44,    331,    2.8,    8.3,   0.00,   0.00, 1019.3,   59.8, -999.0
24-11-2023, 00:29:54,    336,    2.7,    8.3,   0.00,   0.00, 1019.3,   59.9, -999.0
24-11-2023, 00:30:04,    325,    2.4,    8.3,   0.00,   0.00, 1019.3,   60.0, -999.0
24-11-2023, 00:30:14,    339,    2.2,    8.3,   0.00,   0.00, 1019.4,   60.2, -999.0
24-11-2023, 00:30:24,    348,    4.1,    8.4,   0.00,   0.00, 1019.4,   60.0, -999.0
24-11-2023, 00:30:33,    323,    3.3,    8.3,   0.00,   0.00, 1019.3,   60.0, -999.0
24-11-2023, 00:30:44,    329,    4.3,    8.4,   0.00,   0.00, 1019.3,   59.8, -999.0
24-11-2023, 00:30:54,    344,    3.0,    8.3,   0.00,   0.00, 1019.3,   59.7, -999.0
24-11-2023, 00:31:03,      0,    0.8,    8.3,   0.00,   0.00, 1019.2,   59.5, -999.0
24-11-2023, 00:31:14,    321,    1.7,    8.3,   0.00,   0.00, 1019.2,   59.8, -999.0
24-11-2023, 00:31:24,    319,    3.1,    8.4,   0.00,   0.00, 1019.2,   59.7, -999.0
24-11-2023, 00:31:33,    331,    2.4,    8.3,   0.00,   0.00, 1019.3,   59.7, -999.0
24-11-2023, 00:31:43,    327,    1.2,    8.3,   0.00,   0.00, 1019.2,   59.7, -999.0
24-11-2023, 00:31:54,    330,    1.3,    8.3,   0.00,   0.00, 1019.2,   59.8, -999.0
24-11-2023, 00:32:04,    335,    1.3,    8.3,   0.00,   0.00, 1019.2,   59.8, -999.0
24-11-2023, 00:32:13,    336,    0.0,    8.2,   0.00,   0.00, 1019.2,   59.8, -999.0
24-11-2023, 00:32:23,    336,    0.0,    8.2,   0.00,   0.00, 1019.2,   59.8, -999.0
24-11-2023, 00:32:34,    336,    0.4,    8.2,   0.00,   0.00, 1019.1,   59.9, -999.0
24-11-2023, 00:32:43,    336,    0.0,    8.2,   0.00,   0.00, 1019.1,   59.8, -999.0
24-11-2023, 00:32:53,    325,    1.0,    8.3,   0.00,   0.00, 1019.2,   60.2, -999.0
24-11-2023, 00:33:03,    304,    1.7,    8.3,   0.00,   0.00, 1019.2,   60.2, -999.0
24-11-2023, 00:33:13,    334,    3.4,    8.3,   0.00,   0.00, 1019.3,   60.1, -999.0
24-11-2023, 00:33:23,    322,    3.5,    8.2,   0.00,   0.00, 1019.3,   59.9, -999.0
24-11-2023, 00:33:33,    311,    1.7,    8.3,   0.00,   0.00, 1019.2,   59.7, -999.0
24-11-2023, 00:33:43,    312,    1.2,    8.3,   0.00,   0.00, 1019.3,   59.6, -999.0
24-11-2023, 00:33:53,    312,    1.8,    8.3,   0.00,   0.00, 1019.2,   59.7, -999.0
24-11-2023, 00:34:03,    313,    1.3,    8.3,   0.00,   0.00, 1019.3,   59.7, -999.0
24-11-2023, 00:34:13,    314,    1.0,    8.3,   0.00,   0.00, 1019.2,   59.8, -999.0
24-11-2023, 00:34:23,    318,    2.3,    8.2,   0.00,   0.00, 1019.2,   59.7, -999.0
24-11-2023, 00:34:33,    318,    2.2,    8.1,   0.00,   0.00, 1019.2,   59.6, -999.0
24-11-2023, 00:34:43,    316,    2.3,    8.2,   0.00,   0.00, 1019.3,   59.7, -999.0
24-11-2023, 00:34:53,    302,    1.0,    8.3,   0.00,   0.00, 1019.2,   59.8, -999.0
24-11-2023, 00:35:03,    320,    1.7,    8.3,   0.00,   0.00, 1019.2,   59.7, -999.0
24-11-2023, 00:35:13,    297,    0.5,    8.2,   0.00,   0.00, 1019.2,   59.6, -999.0
24-11-2023, 00:35:23,    298,    0.5,    8.3,   0.00,   0.00, 1019.2,   59.8, -999.0
24-11-2023, 00:35:33,    300,    0.2,    8.2,   0.00,   0.00, 1019.2,   59.7, -999.0
24-11-2023, 00:35:43,    338,    0.6,    8.2,   0.00,   0.00, 1019.2,   59.8, -999.0
24-11-2023, 00:35:53,    341,    2.7,    8.2,   0.00,   0.00, 1019.2,   59.7, -999.0
24-11-2023, 00:36:04,    345,    2.0,    8.2,   0.00,   0.00, 1019.3,   59.8, -999.0
24-11-2023, 00:36:13,    333,    2.3,    8.2,   0.00,   0.00, 1019.3,   59.5, -999.0
24-11-2023, 00:36:23,    326,    1.0,    8.2,   0.00,   0.00, 1019.2,   59.6, -999.0
24-11-2023, 00:36:33,    344,    1.6,    8.2,   0.00,   0.00, 1019.2,   59.7, -999.0
24-11-2023, 00:36:43,    332,    4.3,    8.2,   0.00,   0.00, 1019.3,   59.5, -999.0
24-11-2023, 00:36:53,    330,    2.2,    8.2,   0.00,   0.00, 1019.2,   59.3, -999.0
24-11-2023, 00:37:03,    331,    0.8,    8.3,   0.00,   0.00, 1019.2,   59.2, -999.0
24-11-2023, 00:37:13,    302,    2.0,    8.2,   0.00,   0.00, 1019.2,   59.2, -999.0
24-11-2023, 00:37:23,    304,    2.1,    8.3,   0.00,   0.00, 1019.2,   59.2, -999.0
24-11-2023, 00:37:33,    348,    3.5,    8.2,   0.00,   0.00, 1019.2,   59.1, -999.0
24-11-2023, 00:37:43,    294,    3.1,    8.2,   0.00,   0.00, 1019.2,   59.2, -999.0
24-11-2023, 00:37:53,    299,    3.3,    8.3,   0.00,   0.00, 1019.3,   59.0, -999.0
24-11-2023, 00:38:02,    337,    2.8,    8.2,   0.00,   0.00, 1019.3,   59.1, -999.0
24-11-2023, 00:38:13,    335,    1.6,    8.2,   0.00,   0.00, 1019.3,   59.0, -999.0
24-11-2023, 00:38:23,    333,    1.0,    8.3,   0.00,   0.00, 1019.3,   59.0, -999.0
24-11-2023, 00:38:32,    327,    1.8,    8.3,   0.00,   0.00, 1019.4,   59.2, -999.0
24-11-2023, 00:38:42,    328,    1.4,    8.2,   0.00,   0.00, 1019.3,   59.3, -999.0
24-11-2023, 00:38:53,    328,    0.3,    8.2,   0.00,   0.00, 1019.3,   59.0, -999.0
24-11-2023, 00:39:03,    328,    0.1,    8.2,   0.00,   0.00, 1019.2,   59.0, -999.0
24-11-2023, 00:39:12,    313,    2.5,    8.3,   0.00,   0.00, 1019.3,   59.4, -999.0
24-11-2023, 00:39:22,    309,    1.5,    8.3,   0.00,   0.00, 1019.2,   59.4, -999.0
24-11-2023, 00:39:33,    348,    1.9,    8.2,   0.00,   0.00, 1019.2,   59.4, -999.0
24-11-2023, 00:39:42,    322,    2.5,    8.2,   0.00,   0.00, 1019.2,   59.4, -999.0
24-11-2023, 00:39:52,    328,    2.2,    8.2,   0.00,   0.00, 1019.3,   59.2, -999.0
24-11-2023, 00:40:02,    340,    2.6,    8.2,   0.00,   0.00, 1019.3,   59.3, -999.0
24-11-2023, 00:40:12,    338,    2.2,    8.2,   0.00,   0.00, 1019.3,   59.3, -999.0
24-11-2023, 00:40:22,    338,    1.2,    8.2,   0.00,   0.00, 1019.3,   59.3, -999.0
24-11-2023, 00:40:32,    307,    1.4,    8.2,   0.00,   0.00, 1019.3,   59.4, -999.0
24-11-2023, 00:40:42,    308,    1.6,    8.2,   0.00,   0.00, 1019.2,   59.3, -999.0
24-11-2023, 00:40:52,    304,    1.1,    8.2,   0.00,   0.00, 1019.3,   59.3, -999.0
24-11-2023, 00:41:02,    303,    1.9,    8.2,   0.00,   0.00, 1019.3,   59.4, -999.0
24-11-2023, 00:41:12,    304,    1.0,    8.2,   0.00,   0.00, 1019.2,   59.5, -999.0
24-11-2023, 00:41:22,    306,    1.5,    8.2,   0.00,   0.00, 1019.3,   59.4, -999.0
24-11-2023, 00:41:32,    304,    3.2,    8.1,   0.00,   0.00, 1019.3,   59.5, -999.0
24-11-2023, 00:41:42,    300,    4.5,    8.2,   0.00,   0.00, 1019.3,   59.4, -999.0
24-11-2023, 00:41:52,    298,    4.1,    8.1,   0.00,   0.00, 1019.3,   59.1, -999.0
24-11-2023, 00:42:02,    309,    2.1,    8.1,   0.00,   0.00, 1019.3,   59.1, -999.0
24-11-2023, 00:42:12,    299,    2.5,    8.2,   0.00,   0.00, 1019.2,   58.9, -999.0
24-11-2023, 00:42:22,    300,    2.0,    8.2,   0.00,   0.00, 1019.3,   59.0, -999.0
24-11-2023, 00:42:32,    300,    0.5,    8.3,   0.00,   0.00, 1019.3,   58.9, -999.0
24-11-2023, 00:42:42,    300,    0.9,    8.2,   0.00,   0.00, 1019.3,   58.9, -999.0
24-11-2023, 00:42:52,    306,    2.3,    8.2,   0.00,   0.00, 1019.3,   58.9, -999.0
24-11-2023, 00:43:02,    290,    3.4,    8.2,   0.00,   0.00, 1019.3,   58.8, -999.0
24-11-2023, 00:43:12,    293,    1.3,    8.1,   0.00,   0.00, 1019.3,   58.8, -999.0
24-11-2023, 00:43:22,    310,    2.6,    8.2,   0.00,   0.00, 1019.3,   58.9, -999.0
24-11-2023, 00:43:32,    306,    1.9,    8.2,   0.00,   0.00, 1019.3,   58.8, -999.0
24-11-2023, 00:43:42,    301,    0.5,    8.2,   0.00,   0.00, 1019.3,   58.7, -999.0
24-11-2023, 00:43:52,    301,    0.7,    8.2,   0.00,   0.00, 1019.3,   58.7, -999.0
24-11-2023, 00:44:02,    301,    0.1,    8.1,   0.00,   0.00, 1019.2,   58.6, -999.0
24-11-2023, 00:44:12,    307,    1.4,    8.2,   0.00,   0.00, 1019.3,   58.9, -999.0
24-11-2023, 00:44:22,    307,    2.5,    8.2,   0.00,   0.00, 1019.3,   58.9, -999.0
24-11-2023, 00:44:32,    308,    1.7,    8.1,   0.00,   0.00, 1019.3,   59.0, -999.0
24-11-2023, 00:44:41,    316,    1.5,    8.1,   0.00,   0.00, 1019.4,   59.0, -999.0
24-11-2023, 00:44:52,    304,    2.3,    8.2,   0.00,   0.00, 1019.4,   59.1, -999.0
24-11-2023, 00:45:02,    320,    1.5,    8.2,   0.00,   0.00, 1019.3,   59.0, -999.0
24-11-2023, 00:45:11,    330,    3.0,    8.2,   0.00,   0.00, 1019.3,   58.9, -999.0
24-11-2023, 00:45:21,    343,    3.2,    8.2,   0.00,   0.00, 1019.3,   59.0, -999.0
24-11-2023, 00:45:32,    315,    3.2,    8.1,   0.00,   0.00, 1019.4,   59.0, -999.0
24-11-2023, 00:45:41,    305,    1.2,    8.1,   0.00,   0.00, 1019.3,   58.8, -999.0
24-11-2023, 00:45:51,    326,    3.3,    8.2,   0.00,   0.00, 1019.3,   58.6, -999.0
24-11-2023, 00:46:02,    342,    3.3,    8.1,   0.00,   0.00, 1019.3,   58.6, -999.0
24-11-2023, 00:46:12,    302,    2.5,    8.2,   0.00,   0.00, 1019.3,   58.4, -999.0
24-11-2023, 00:46:21,    326,    2.0,    8.2,   0.00,   0.00, 1019.3,   58.5, -999.0
24-11-2023, 00:46:31,    328,    3.7,    8.2,   0.00,   0.00, 1019.3,   58.5, -999.0
24-11-2023, 00:46:42,    344,    2.5,    8.2,   0.00,   0.00, 1019.4,   58.4, -999.0
24-11-2023, 00:46:51,    308,    1.8,    8.1,   0.00,   0.00, 1019.3,   58.5, -999.0